Location: Brede
(50.9167°N, 0.6000°E)
Time: 22:06:03
(UTC+00:00)

A-11 Canister half - Pass Details

Date: 04 December 2020
Orbit: 1524 x 1684 km, 47.3° (Epoch: 23 January)

Event Time Altitude Azimuth Distance (km) Brightness Sun altitude
Exits shadow 03:07:21 22° 159° (SSE) 3,092 10.5 -42.1°
Maximum altitude 03:10:30 26° 133° (SE) 2,889 10.5 -41.6°
Drops below altitude 10° 03:18:12 10° 83° (E) 3,930 11.8 -40.5°
Sets 03:22:01 0° 72° (ENE) 4,904 12.5 -39.9°
